Back to catalog

STARLINK-5620

AliveCommunicationsVLEO
NORAD 55414·PAYLOAD·🇺🇸 United States

Launched Jan 31, 2023 from Vandenberg Space Force Base

Loading…

Next Passes (next 24 hours)

TLE

FreshSource: CelesTrak SupGP

Epoch: Sep 14, 2026, 13:16 UTC

1 55414C 23014Z   26257.55326389  .00024237  00000+0  20316-2 0  2570
2 55414  70.0013 328.1752 0003606 270.3448 116.2287 14.98309179    12

Track STARLINK-5620 in real time with AllMySat

Download on the App Store